ROT2918 LROP-LZIB

Flight info

Callsign ROT2918
Flight time 1h 16m
Altitude 38000
Route SOKRU DCT OXDOC DCT DEGET DCT BALUX DCT TORNO DCT BODZA DCT XOMBA
Aircraft B737/M-SDE2E3FGHIRWXY/LB1

Departure

Time 2026-05-04 17:21
Airport Bucharest Henri Coandă International Airport (LROP)

Arrival

Time 2026-05-04 18:37
Airport M. R. Štefánik Airport (LZIB)
Time Latitude Longitude Altitude Speed Heading
2026-05-04 16:53 44.57025 26.08198 317 ft 0 kts 353°
2026-05-04 17:11 44.57016 26.08199 317 ft 2 kts 355°
2026-05-04 17:11 44.56986 26.08203 316 ft 2 kts 355°
2026-05-04 17:12 44.56971 26.08205 316 ft 2 kts 354°
2026-05-04 17:12 44.56947 26.08224 315 ft 2 kts 294°
2026-05-04 17:13 44.56948 26.08285 314 ft 2 kts 264°
2026-05-04 17:14 44.56949 26.08295 314 ft 0 kts 265°
2026-05-04 17:17 44.56911 26.07988 319 ft 12 kts 213°
2026-05-04 17:18 44.56800 26.07997 317 ft 15 kts 163°
2026-05-04 17:18 44.56840 26.08292 312 ft 24 kts 62°
2026-05-04 17:19 44.56974 26.08542 310 ft 15 kts 353°
2026-05-04 17:19 44.57287 26.08495 314 ft 28 kts 354°
2026-05-04 17:20 44.57635 26.08452 314 ft 12 kts 17°
2026-05-04 17:20 44.57672 26.08576 314 ft 0 kts 83°
2026-05-04 17:21 44.57752 26.09623 317 ft 127 kts 83°
2026-05-04 17:21 44.57975 26.12330 1548 ft 149 kts 86°
2026-05-04 17:22 44.58025 26.13323 1855 ft 166 kts 86°
2026-05-04 17:22 44.58141 26.15035 2311 ft 190 kts 85°
2026-05-04 17:23 44.59527 26.20227 3868 ft 251 kts 32°
2026-05-04 17:23 44.61255 26.20800 4647 ft 267 kts 355°
2026-05-04 17:23 44.64021 26.17664 6531 ft 279 kts 290°
2026-05-04 17:24 44.64647 26.15063 7532 ft 284 kts 291°
2026-05-04 17:24 44.67476 26.07674 10351 ft 297 kts 300°
2026-05-04 17:25 44.68532 26.05071 10923 ft 316 kts 300°
2026-05-04 17:25 44.70820 25.99486 12265 ft 344 kts 300°
2026-05-04 17:26 44.73245 25.93569 14103 ft 356 kts 300°
2026-05-04 17:26 44.77006 25.84377 16834 ft 372 kts 300°
2026-05-04 17:27 44.79601 25.78032 18551 ft 381 kts 299°
2026-05-04 17:27 44.82268 25.71514 20204 ft 389 kts 299°
2026-05-04 17:28 44.84961 25.64845 21634 ft 400 kts 298°
2026-05-04 17:29 44.89135 25.54466 23792 ft 412 kts 298°
2026-05-04 17:29 44.93414 25.43809 25720 ft 424 kts 298°
2026-05-04 17:30 44.97806 25.32874 27529 ft 433 kts 297°
2026-05-04 17:31 45.00771 25.25452 28519 ft 443 kts 297°
2026-05-04 17:31 45.05353 25.14127 30524 ft 440 kts 298°
2026-05-04 17:32 45.08306 25.06827 32320 ft 423 kts 297°
2026-05-04 17:33 45.12540 24.96179 34061 ft 412 kts 296°
2026-05-04 17:33 45.13937 24.92664 34044 ft 404 kts 296°
2026-05-04 17:34 45.19239 24.79126 34047 ft 397 kts 295°
2026-05-04 17:35 45.25945 24.62017 34047 ft 398 kts 296°
2026-05-04 17:36 45.28287 24.56062 34047 ft 397 kts 296°
2026-05-04 17:36 45.30957 24.49236 34047 ft 396 kts 296°
2026-05-04 17:37 45.33607 24.42399 34047 ft 397 kts 295°
2026-05-04 17:37 45.36242 24.35542 34047 ft 396 kts 296°
2026-05-04 17:38 45.38834 24.28800 34046 ft 396 kts 295°
2026-05-04 17:38 45.41460 24.21955 34047 ft 395 kts 295°
2026-05-04 17:39 45.45413 24.11678 34047 ft 396 kts 295°
2026-05-04 17:39 45.48073 24.04783 34047 ft 396 kts 295°
2026-05-04 17:40 45.50704 23.97941 34047 ft 397 kts 295°
2026-05-04 17:40 45.53347 23.91026 34047 ft 395 kts 295°
2026-05-04 17:41 45.55959 23.84187 34047 ft 395 kts 295°
2026-05-04 17:41 45.58566 23.77291 34047 ft 396 kts 295°
2026-05-04 17:42 45.61163 23.70378 34047 ft 395 kts 295°
2026-05-04 17:42 45.63794 23.63447 34047 ft 396 kts 295°
2026-05-04 17:43 45.66414 23.56534 34047 ft 396 kts 295°
2026-05-04 17:43 45.69001 23.49642 34047 ft 396 kts 295°
2026-05-04 17:44 45.71580 23.42722 34047 ft 395 kts 295°
2026-05-04 17:44 45.74200 23.35790 34048 ft 395 kts 295°
2026-05-04 17:45 45.76793 23.28888 34046 ft 397 kts 294°
2026-05-04 17:45 45.79382 23.21913 34047 ft 395 kts 294°
2026-05-04 17:46 45.81936 23.14979 34047 ft 395 kts 294°
2026-05-04 17:46 45.84489 23.08042 34046 ft 396 kts 294°
2026-05-04 17:47 45.87059 23.01080 34046 ft 394 kts 295°
2026-05-04 17:47 45.89576 22.94211 34047 ft 387 kts 296°
2026-05-04 17:48 45.92075 22.87424 34047 ft 385 kts 298°
2026-05-04 17:48 45.94589 22.80610 34047 ft 390 kts 299°
2026-05-04 17:49 45.97138 22.73692 34052 ft 392 kts 299°
2026-05-04 17:49 45.99659 22.66797 34060 ft 389 kts 299°
2026-05-04 17:50 46.02150 22.59931 34068 ft 390 kts 299°
2026-05-04 17:50 46.04671 22.53021 34073 ft 390 kts 299°
2026-05-04 17:51 46.07144 22.46141 34073 ft 390 kts 299°
2026-05-04 17:51 46.09646 22.39190 34074 ft 389 kts 299°
2026-05-04 17:52 46.12140 22.32318 34074 ft 390 kts 298°
2026-05-04 17:52 46.14630 22.25373 34074 ft 390 kts 298°
2026-05-04 17:53 46.17097 22.18419 34073 ft 389 kts 298°
2026-05-04 17:53 46.19582 22.11456 34074 ft 390 kts 298°
2026-05-04 17:54 46.22055 22.04558 34073 ft 389 kts 298°
2026-05-04 17:54 46.24528 21.97625 34074 ft 389 kts 298°
2026-05-04 17:55 46.27003 21.90661 34074 ft 389 kts 298°
2026-05-04 17:55 46.29439 21.83718 34074 ft 390 kts 298°
2026-05-04 17:56 46.31886 21.76742 34074 ft 389 kts 298°
2026-05-04 17:56 46.34328 21.69798 34074 ft 389 kts 298°
2026-05-04 17:57 46.36795 21.62812 34074 ft 388 kts 298°
2026-05-04 17:57 46.39238 21.55849 34074 ft 389 kts 298°
2026-05-04 17:58 46.41660 21.48893 34074 ft 387 kts 298°
2026-05-04 17:58 46.44100 21.41913 34074 ft 389 kts 298°
2026-05-04 17:59 46.46532 21.34943 34074 ft 388 kts 297°
2026-05-04 18:00 46.50189 21.24475 34073 ft 388 kts 301°
2026-05-04 18:00 46.52907 21.17745 34073 ft 389 kts 301°
2026-05-04 18:01 46.55553 21.10920 34074 ft 387 kts 301°
2026-05-04 18:01 46.58196 21.04189 34074 ft 384 kts 301°
2026-05-04 18:02 46.62124 20.94143 34074 ft 379 kts 302°
2026-05-04 18:02 46.64701 20.87543 34074 ft 375 kts 303°
2026-05-04 18:03 46.67271 20.80949 34067 ft 376 kts 303°
2026-05-04 18:03 46.69838 20.74347 34059 ft 377 kts 303°
2026-05-04 18:04 46.72404 20.67728 34052 ft 376 kts 303°
2026-05-04 18:05 46.76245 20.57795 34047 ft 375 kts 303°
2026-05-04 18:05 46.78816 20.51129 33804 ft 380 kts 303°
2026-05-04 18:05 46.80098 20.47795 33554 ft 380 kts 303°
2026-05-04 18:06 46.82668 20.41101 33054 ft 378 kts 303°
2026-05-04 18:06 46.83949 20.37761 32806 ft 379 kts 303°
2026-05-04 18:06 46.85235 20.34402 32555 ft 379 kts 303°
2026-05-04 18:07 46.86513 20.31060 32307 ft 379 kts 303°
2026-05-04 18:07 46.87814 20.27659 32061 ft 387 kts 303°
2026-05-04 18:07 46.89144 20.24184 31768 ft 405 kts 303°
2026-05-04 18:07 46.90556 20.20488 31436 ft 423 kts 302°
2026-05-04 18:08 46.91991 20.16712 31104 ft 423 kts 302°
2026-05-04 18:08 46.93386 20.13024 30781 ft 417 kts 302°
2026-05-04 18:08 46.94781 20.09339 30455 ft 412 kts 302°
2026-05-04 18:08 46.96160 20.05698 30129 ft 408 kts 302°
2026-05-04 18:09 46.98894 19.98469 29478 ft 404 kts 302°
2026-05-04 18:09 47.01579 19.91347 28834 ft 404 kts 301°
2026-05-04 18:10 47.02957 19.87692 28508 ft 413 kts 301°
2026-05-04 18:10 47.04340 19.84011 28179 ft 411 kts 300°
2026-05-04 18:10 47.05707 19.80366 27853 ft 407 kts 300°
2026-05-04 18:10 47.07061 19.76750 27527 ft 403 kts 300°
2026-05-04 18:11 47.08402 19.73169 27202 ft 401 kts 300°
2026-05-04 18:11 47.09741 19.69587 26876 ft 400 kts 300°
2026-05-04 18:11 47.11070 19.66027 26552 ft 399 kts 300°
2026-05-04 18:11 47.12386 19.62499 26230 ft 398 kts 300°
2026-05-04 18:12 47.13708 19.58948 25883 ft 396 kts 300°
2026-05-04 18:12 47.15022 19.55415 25559 ft 394 kts 300°
2026-05-04 18:12 47.16323 19.51911 25235 ft 392 kts 300°
2026-05-04 18:12 47.17631 19.48383 24907 ft 390 kts 300°
2026-05-04 18:13 47.18917 19.44914 24584 ft 389 kts 300°
2026-05-04 18:13 47.20204 19.41432 24259 ft 387 kts 300°
2026-05-04 18:13 47.22764 19.34500 23474 ft 386 kts 299°
2026-05-04 18:14 47.24033 19.31057 23049 ft 383 kts 299°
2026-05-04 18:14 47.25290 19.27638 22624 ft 380 kts 299°
2026-05-04 18:14 47.26546 19.24220 22196 ft 377 kts 298°
2026-05-04 18:15 47.29249 19.17704 21468 ft 371 kts 303°
2026-05-04 18:15 47.31998 19.11332 20868 ft 367 kts 301°
2026-05-04 18:15 47.33342 19.08167 20568 ft 365 kts 301°
2026-05-04 18:16 47.34690 19.04995 20266 ft 362 kts 301°
2026-05-04 18:16 47.36004 19.01894 19968 ft 360 kts 300°
2026-05-04 18:16 47.37326 18.98765 19667 ft 359 kts 300°
2026-05-04 18:17 47.39954 18.92525 19065 ft 357 kts 300°
2026-05-04 18:17 47.41248 18.89446 18767 ft 357 kts 300°
2026-05-04 18:17 47.43859 18.83222 18165 ft 356 kts 300°
2026-05-04 18:18 47.45146 18.80148 17867 ft 355 kts 300°
2026-05-04 18:18 47.46439 18.77055 17567 ft 354 kts 300°
2026-05-04 18:18 47.47736 18.73950 17266 ft 354 kts 300°
2026-05-04 18:18 47.49021 18.70868 16966 ft 353 kts 300°
2026-05-04 18:19 47.51584 18.64715 16366 ft 352 kts 300°
2026-05-04 18:19 47.52871 18.61619 16064 ft 351 kts 300°
2026-05-04 18:19 47.54146 18.58548 15764 ft 350 kts 300°
2026-05-04 18:20 47.55411 18.55497 15465 ft 350 kts 300°
2026-05-04 18:20 47.56680 18.52434 15165 ft 349 kts 300°
2026-05-04 18:20 47.57949 18.49367 14863 ft 348 kts 300°
2026-05-04 18:20 47.59217 18.46300 14561 ft 348 kts 300°
2026-05-04 18:21 47.60459 18.43291 14265 ft 347 kts 300°
2026-05-04 18:21 47.61713 18.40250 13965 ft 346 kts 300°
2026-05-04 18:21 47.62980 18.37176 13666 ft 345 kts 300°
2026-05-04 18:21 47.64214 18.34178 13420 ft 344 kts 299°
2026-05-04 18:22 47.65470 18.31120 13168 ft 344 kts 299°
2026-05-04 18:22 47.66701 18.28122 12920 ft 344 kts 299°
2026-05-04 18:22 47.67938 18.25107 12670 ft 343 kts 299°
2026-05-04 18:22 47.69193 18.22089 12418 ft 343 kts 302°
2026-05-04 18:23 47.70791 18.19508 12167 ft 345 kts 318°
2026-05-04 18:23 47.72678 18.17329 11992 ft 343 kts 320°
2026-05-04 18:23 47.74564 18.15127 11995 ft 342 kts 320°
2026-05-04 18:23 47.76438 18.12910 11993 ft 345 kts 320°
2026-05-04 18:24 47.78301 18.10713 11993 ft 345 kts 320°
2026-05-04 18:24 47.80175 18.08502 11992 ft 345 kts 320°
2026-05-04 18:24 47.82058 18.06278 11992 ft 345 kts 320°
2026-05-04 18:24 47.83926 18.04073 11993 ft 345 kts 320°
2026-05-04 18:25 47.85795 18.01864 11992 ft 344 kts 320°
2026-05-04 18:25 47.87640 17.99686 11987 ft 330 kts 320°
2026-05-04 18:25 47.89389 17.97627 11787 ft 312 kts 320°
2026-05-04 18:25 47.91052 17.95676 11372 ft 302 kts 320°
2026-05-04 18:26 47.92682 17.93765 11095 ft 297 kts 320°
2026-05-04 18:26 47.94282 17.91891 10739 ft 295 kts 320°
2026-05-04 18:26 47.95899 17.89997 10357 ft 293 kts 320°
2026-05-04 18:26 47.97489 17.88133 9975 ft 292 kts 320°
2026-05-04 18:27 47.99070 17.86279 9594 ft 291 kts 320°
2026-05-04 18:27 48.00661 17.84411 9210 ft 290 kts 320°
2026-05-04 18:27 48.02230 17.82568 8996 ft 284 kts 320°
2026-05-04 18:27 48.03792 17.80733 9023 ft 288 kts 320°
2026-05-04 18:28 48.05330 17.78926 9017 ft 276 kts 320°
2026-05-04 18:28 48.06803 17.77201 9027 ft 259 kts 320°
2026-05-04 18:28 48.08187 17.75588 9017 ft 252 kts 320°
2026-05-04 18:28 48.09583 17.73960 9018 ft 255 kts 320°
2026-05-04 18:29 48.10989 17.72318 8982 ft 254 kts 320°
2026-05-04 18:29 48.12365 17.70710 8593 ft 254 kts 320°
2026-05-04 18:29 48.13757 17.69079 8208 ft 254 kts 320°
2026-05-04 18:29 48.15154 17.67440 7829 ft 253 kts 320°
2026-05-04 18:30 48.17900 17.64203 7078 ft 252 kts 320°
2026-05-04 18:30 48.19262 17.62593 6723 ft 251 kts 320°
2026-05-04 18:30 48.20615 17.60987 6365 ft 249 kts 320°
2026-05-04 18:31 48.21973 17.59370 6031 ft 247 kts 320°
2026-05-04 18:31 48.23298 17.57790 5993 ft 245 kts 320°
2026-05-04 18:31 48.24637 17.56190 5997 ft 248 kts 320°
2026-05-04 18:31 48.26000 17.54561 5995 ft 248 kts 320°
2026-05-04 18:32 48.27346 17.52951 6000 ft 248 kts 320°
2026-05-04 18:32 48.28690 17.51343 5990 ft 248 kts 320°
2026-05-04 18:32 48.29845 17.49465 5951 ft 242 kts 299°
2026-05-04 18:32 48.30314 17.47125 5531 ft 237 kts 269°
2026-05-04 18:33 48.30036 17.44714 5087 ft 234 kts 254°
2026-05-04 18:33 48.29652 17.42340 4487 ft 232 kts 255°
2026-05-04 18:33 48.29300 17.40074 4162 ft 216 kts 255°
2026-05-04 18:33 48.28780 17.38083 3881 ft 198 kts 232°
2026-05-04 18:34 48.27766 17.36713 3231 ft 202 kts 217°
2026-05-04 18:34 48.26732 17.35305 2832 ft 193 kts 222°
2026-05-04 18:34 48.25794 17.33959 2588 ft 185 kts 222°
2026-05-04 18:34 48.24865 17.32615 2338 ft 185 kts 221°
2026-05-04 18:35 48.23945 17.31284 2085 ft 184 kts 221°
2026-05-04 18:35 48.23059 17.30003 1877 ft 165 kts 221°
2026-05-04 18:35 48.22303 17.28910 1646 ft 139 kts 221°
2026-05-04 18:35 48.21615 17.27918 1448 ft 135 kts 221°
2026-05-04 18:36 48.20948 17.26956 1266 ft 134 kts 221°
2026-05-04 18:36 48.20275 17.25985 1090 ft 135 kts 221°
2026-05-04 18:36 48.19593 17.25002 906 ft 136 kts 221°
2026-05-04 18:36 48.18914 17.24022 741 ft 136 kts 221°
2026-05-04 18:37 48.18232 17.23035 559 ft 136 kts 221°
2026-05-04 18:37 48.17553 17.22063 433 ft 130 kts 221°
2026-05-04 18:37 48.17045 17.21335 429 ft 64 kts 224°
2026-05-04 18:37 48.16899 17.21072 429 ft 4 kts 283°
2026-05-04 18:38 48.16903 17.21059 429 ft 1 kts 302°
2026-05-04 18:38 48.16954 17.20983 429 ft 19 kts 315°
2026-05-04 18:38 48.17049 17.20835 429 ft 5 kts 313°
2026-05-04 18:38 48.17051 17.20833 429 ft 0 kts 313°
2026-05-04 18:39 48.17062 17.20815 429 ft 6 kts 313°
2026-05-04 18:39 48.17111 17.20737 431 ft 10 kts 313°
2026-05-04 18:39 48.17156 17.20669 432 ft 7 kts 311°
2026-05-04 18:40 48.17171 17.20602 432 ft 6 kts 265°
2026-05-04 18:40 48.17155 17.20551 432 ft 5 kts 225°
2026-05-04 18:40 48.17133 17.20520 432 ft 3 kts 219°
2026-05-04 18:40 48.17110 17.20492 432 ft 6 kts 221°
2026-05-04 18:41 48.17070 17.20435 433 ft 7 kts 224°
2026-05-04 18:41 48.17034 17.20383 434 ft 6 kts 223°
2026-05-04 18:41 48.17006 17.20342 435 ft 4 kts 224°
2026-05-04 18:41 48.16981 17.20307 435 ft 5 kts 223°
2026-05-04 18:42 48.16975 17.20277 435 ft 2 kts 294°
2026-05-04 18:42 48.16986 17.20259 435 ft 1 kts 315°
2026-05-04 18:42 48.16992 17.20250 435 ft 1 kts 314°
2026-05-04 18:42 48.17003 17.20234 435 ft 1 kts 314°
2026-05-04 18:43 48.17008 17.20225 435 ft 0 kts 314°